Regional Weather Roundup
Issued by NWS

Home | Current Version | Previous Version | Graphics & Text | Print | Product List | Glossary On
Versions: 1 2 3 4 5 6 7 8 9 10 11 12 13 14 15 16 17 18 19 20 21 22 23 24 25 26 27 28 29 30 31 32 33 34 35 36 37 38 39 40 41 42 43 44 45 46 47 48 49 50
000
ASUS45 KTFX 282319
RWRMT
MONTANA HOURLY WEATHER ROUNDUP
NATIONAL WEATHER SERVICE GREAT FALLS MT
419 PM MST SUN DEC 28 2014

NOTE: "FAIR" INDICATES FEW OR NO CLOUDS BELOW 12000 FEET WITH NO
SIGNIFICANT WEATHER AND/OR OBSTRUCTIONS TO VISIBILITY.

* THESE STATIONS ARE NOT UNDER NWS QUALITY CONTROL. THEY DO NOT
   REPORT WEATHER SUCH AS PRECIPITATION OR FOG.

MTZ001>007-043-290000-
WEST OF THE DIVIDE
CITY           SKY/WX    TMP DP  RH WIND       PRES   REMARKS
KALISPELL      CLOUDY    25  14  63 NE20      30.10R WCI  11
MISSOULA       CLOUDY    27  21  78 SE16      30.05R WCI  15
BUTTE          LGT SNOW  18  12  77 NW9       29.94R VSB 1 1/4 WCI   7
MULLAN PASS    LGT SNOW  21  18  88 CALM      29.89R VSB 1/2
* ESSEX        N/A       16   6  64 SE6G13     N/A   WCI   7
* HAMILTON APT CLOUDY    32  25  75 N2        29.98R
* LINCOLN      N/A       14   5  67 E13G25     N/A
* LOOKOUT PASS N/A       24  22  92 N4         N/A
* POLSON       N/A       25  22  88 N1G6       N/A
* RONAN APT    PTSUNNY   28  27  96 E6         N/A   WCI  21
* SEELEY LAKE  N/A       25  17  72 S4         N/A
* THOMP F APT  PTSUNNY   16  12  84 SW3        N/A
* YAAK HILL    N/A       31  22  69 N/A        N/A
$$

MTZ008-052>055-290000-
SOUTHWEST MONTANA
CITY           SKY/WX    TMP DP  RH WIND       PRES   REMARKS
BOZEMAN        PTSUNNY   19  12  74 NW14      29.99R WCI   5
DILLON         PTSUNNY   19  16  88 NE15      29.91R WCI   5
* W YELLOWSTON PTCLDY    19  13  77 SW4G10     N/A
* THREE FORKS  CLOUDY    21  21 100 N16G22     N/A   WCI   7
* BOULDER HILL N/A       10   6  84 N19G24     N/A   WCI  -8
* MONIDA PASS  N/A       14  11  88 SE8        N/A   WCI   3
* RAYNOLDS PAS N/A       14  -1  51 S12        N/A
* WHITEHALL    N/A       20   8  59 NE14G24    N/A   WCI   7
* WISE RIVER   N/A       25  17  72 SW4G9      N/A
$$

MTZ009>010-012-014-046-048-049-054-290000-
EAST SLOPES AND CENTRAL MONTANA
CITY           SKY/WX    TMP DP  RH WIND       PRES   REMARKS
CUT BANK       LGT SNOW  12   7  80 N17       30.23R VSB 2 1/2 WCI  -5
GREAT FALLS    LGT SNOW  12   9  88 N17       30.21R VSB 1    WCI  -5
HELENA         HAZE      18   7  62 NW14      30.15R WCI   4
MALMSTROM AFB  LGT SNOW  14  10  84 N13       30.24R VSB 2 1/4
* CONRAD       PTSUNNY   12   9  88 NW13G22    N/A   WCI  -3
* DEARBORN     N/A       16   9  74 N8         N/A   WCI   5
* EAST GLACIER N/A        8   4  84 E11        N/A   WCI  -7
* MONARCH      N/A        7   3  83 NW12       N/A   WCI  -9
* PENDROY      N/A        9   8  96 VRB23G29    N/A   WCI -11
* ROGERS PASS  N/A        7   3  83 SE6G11     N/A   WCI  -4
* SWEET GRASS  N/A        8   6  91 N/A        N/A
* WHITE SULPH  N/A        9   4  80 NW15G24    N/A   WCI  -8
$$

MTZ011-013-016-021-035-040-045-047-050-051-290000-
NORTH CENTRAL MONTANA
CITY           SKY/WX    TMP DP  RH WIND       PRES   REMARKS
HAVRE          CLOUDY    18  12  77 NE13      30.26R WCI   5
LEWISTOWN      LGT SNOW  16  10  77 NW7       30.10R VSB 3/4  WCI   6
* N BAR RANCH  HAZE      14   9  80 N9G16     30.06R VSB 2    WCI   2
* CHINOOK      PTSUNNY   16  10  77 NE5       30.28R VSB 3    WCI   8
* CHESTER      N/A       15   6  67 NE9G15     N/A   WCI   3
* DENTON       N/A       15  11  84 NW14G20    N/A
* GEYSER       N/A       11   8  88 W20G25     N/A   WCI  -8
* JUDITH GAP   N/A       13  12  96 N28        N/A   WCI  -8
* LOMA         N/A       17  13  84 NW11G22    N/A   WCI   4
$$

MTZ017>020-022>027-061-062-290000-
NORTHEAST MONTANA
CITY           SKY/WX    TMP DP  RH WIND       PRES   REMARKS
GLASGOW        LGT SNOW  12   3  67 NE7       30.24R WCI   1
GLENDIVE       CLOUDY    14  10  84 NE17      30.15R WCI  -2
SIDNEY         PTSUNNY   12   9  88 N13       30.26R WCI  -3
WOLF POINT     CLOUDY    12   1  61 NE18      30.27R WCI  -5
* BEAVER HILL  N/A       15  11  84 NE15       N/A
* CIRCLE       N/A       11   7  84 NE13G20    N/A   WCI  -4
* LINDSAY DVD  N/A       13  11  92 NE12G18    N/A   WCI  -1
* NAVAJO       N/A        1  -5  75 N9         N/A   WCI -14
* PLENTYWOOD A PTSUNNY    1  -2  87 N14       30.29R WCI -18
* POPLAR APT   PTSUNNY    9   0  66 N/A       30.27R
* SACO         N/A       14   6  70 N15        N/A   WCI  -1
$$

MTZ028>042-056>058-290000-
SOUTHCENTRAL AND SOUTHEAST MONTANA
CITY           SKY/WX    TMP DP  RH WIND       PRES   REMARKS
BAKER          LGT SNOW  19  16  88 E14       30.06R VSB 3/4  WCI   5
BILLINGS       LGT SNOW  19  16  88 N18G23    30.04R VSB 3/4  WCI   4
LIVINGSTON     HVY SNOW  18  12  77 NW15      30.00R VSB M1/4 WCI   4
MILES CITY     LGT SNOW  21  18  88 NE23      30.06R VSB 1    WCI   5
* BIG TIMBER A CLOUDY    19  14  81 N10G17    30.03R WCI   8
* FORSYTH APT  CLOUDY    25  23  92 N10       30.06R VSB 1 1/2 WCI  15
* LAUREL APT   CLOUDY    23  14  68 N11G18     N/A   WCI  12
* ROUNDUP APT  CLOUDY    18  10  71 N14G20     N/A   WCI   4
* HYSHAM       N/A       20  17  88 N6G12      N/A   WCI  12
* REED POINT   N/A       25  21  85 NW5        N/A   WCI  19
* ROSCOE HILL  N/A       19  15  84 N12        N/A   WCI   6
$$

REGIONAL REPORTS...DAKOTAS
CITY           SKY/WX    TMP DP  RH WIND       PRES   REMARKS
WILLISTON      CLOUDY     9   0  66 N13       30.28R WCI  -7
DICKINSON      LGT SNOW  14   9  80 NE15      30.11R VSB 1 1/4 WCI  -1
BEACH          LGT SNOW  14  12  92 NE10      30.12R VSB 3    WCI   1
CROSBY         PTSUNNY    0  -6  75 N9        30.35R WCI -15
WATFORD CITY   CLOUDY     7   1  76 NE10      30.22R WCI  -7
BISMARCK       CLOUDY     7   3  83 NE12      30.26R WCI  -9
GRAND FORKS    SUNNY     -2  -9  72 N9        30.40R WCI -18
FARGO          SUNNY      1  -8  65 N13       30.36R WCI -17
BUFFALO SD     PTCLDY    19  16  88 E13       29.95R WCI   6
RAPID CITY     LGT SNOW  21  14  74 NE10      29.98R WCI  10
$$

REGIONAL REPORTS...WYOMING/IDAHO/WASHINGTON
CITY           SKY/WX    TMP DP  RH WIND       PRES   REMARKS
GILLETTE       CLOUDY    25  16  69 NE6       29.89R WCI  18
SHERIDAN       LGT SNOW  25  16  69 CALM      29.94R
CODY           CLOUDY    18  14  84 CALM      29.91R
YELLOWSTONE LA PTCLDY    16   9  74 W7        29.84S WCI   6
SALMON         PTSUNNY   23  18  81 CALM      30.01R
MULLAN PASS    LGT SNOW  21  18  88 CALM      29.89S VSB 1/2
SAND POINT     LGT SNOW  32  30  92 NE14      30.07R VSB 2    WCI  22
SPOKANE        CLOUDY    28  27  96 SE3       30.06R
$$

REGIONAL REPORTS...ALBERTA
CITY           SKY/WX    TMP DP  RH WIND       PRES   REMARKS
CALGARY        LGT SNOW  12   7  80 N12       30.33R WCI  -2
LETHBRIDGE     LGT SNOW  12   9  88 N8        30.34R VSB 3
MEDICINE HAT   LGT SNOW   5   1  83 N10       30.38R VSB 2 1/2 WCI -10
EDMONTON       LGT SNOW   7   3  83 N10       30.49R VSB 3    WCI  -7
WATERTON GATE  N/A        9   7  91 N7         N/A   WCI  -2
CARDSTON       N/A       10   9  96 NW12       N/A   WCI  -5
MILK RIVER     N/A        9   7  91 N14        N/A   WCI  -7
$$

REGIONAL REPORTS...SASKATCHEWAN
CITY           SKY/WX    TMP DP  RH WIND       PRES   REMARKS
SWIFT CURRENT  PTCLDY    -4  -9  79 NE5       30.33R WCI -15
REGINA         SUNNY     -9 -15  74 NW7       30.40R WCI -24
VAL MARIE      N/A        5   0  80 NE15       N/A   WCI -13
ASSINIBOIA     N/A       -6 -11  78 N5         N/A   WCI -18
CORONACH       N/A        1  -6  72 N6         N/A   WCI -11

$$



USA.gov is the U.S. government's official web portal to all federal, state and local government web resources and services.